Location: Brad
(46.1333°N, 22.7833°E)
Time: 12:06:58
(UTC+00:00)

COSMO-SKYMED 1 - Pass Details

Date: 03 February 2023
Orbit: 621 x 623 km, 97.9° (Epoch: 21 March)

Event Time Altitude Azimuth Distance (km) Brightness Sun altitude
Rises 17:05:39 0° 8° (N) 2,918 5.9 -15.7°
Reaches altitude 10° 17:07:54 10° 3° (N) 2,006 5.1 -16.1°
Maximum altitude 17:12:07 51° 288° (WNW) 791 3.4 -16.8°
Drops below altitude 10° 17:16:19 10° 213° (SSW) 1,989 5.7 -17.5°
Sets 17:18:32 0° 208° (SSW) 2,890 6.5 -17.9°
